2023/07/21 00:00:00, 0.1,20.4
2023/07/21 00:10:00, 0.1,20.2
2023/07/21 00:20:00, 0.1,19.8
2023/07/21 00:30:00, 0.1,20.0
2023/07/21 00:40:00, 0.1,19.8
2023/07/21 00:50:00, 0.1,19.6
2023/07/21 01:00:00, 0.2,19.6
2023/07/21 01:10:00, 0.2,19.7
2023/07/21 01:20:00, 0.2,19.6
2023/07/21 01:30:00, 0.2,19.4
2023/07/21 01:40:00, 0.2,19.5
2023/07/21 01:50:00, 0.2,19.4
2023/07/21 02:00:00, 0.2,19.1
2023/07/21 02:10:00, 0.1,19.1
2023/07/21 02:20:00, 0.1,19.3
2023/07/21 02:30:00, 0.2,19.3
2023/07/21 02:40:00, 0.1,18.9
2023/07/21 02:50:00, 0.2,19.0
2023/07/21 03:00:00, 0.2,19.1
2023/07/21 03:10:00, 0.1,18.7
2023/07/21 03:20:00, 0.1,18.7
2023/07/21 03:30:00, 0.2,18.6
2023/07/21 03:40:00, 0.1,18.6
2023/07/21 03:50:00, 0.1,18.6
2023/07/21 04:00:00, 0.2,18.3
2023/07/21 04:10:00, 0.2,18.3
2023/07/21 04:20:00, 0.2,18.5
2023/07/21 04:30:00, 0.2,18.3
2023/07/21 04:40:00, 0.2,18.7
2023/07/21 04:50:00, 0.2,18.2
2023/07/21 05:00:00, 0.2,18.2
2023/07/21 05:10:00, 0.2,18.0
2023/07/21 05:20:00, 0.2,18.0
2023/07/21 05:30:00, 0.3,18.6
2023/07/21 05:40:00, 0.3,18.5
2023/07/21 05:50:00, 0.3,18.7
2023/07/21 06:00:00, 0.2,19.1
2023/07/21 06:10:00, 0.2,19.8
2023/07/21 06:20:00, 0.1,21.0
2023/07/21 06:30:00, 0.1,20.8
2023/07/21 06:40:00, 0.1,21.1
2023/07/21 06:50:00, 0.1,21.9
2023/07/21 07:00:00, 0.1,22.4
2023/07/21 07:10:00, 0.1,22.8
2023/07/21 07:20:00, 0.1,23.4
2023/07/21 07:30:00, 0.1,24.0
2023/07/21 07:40:00, 0.1,24.4
2023/07/21 07:50:00, 0.1,24.9
2023/07/21 08:00:00, 0.1,25.3
2023/07/21 08:10:00, 0.1,25.7
2023/07/21 08:20:00, 0.0,26.0
2023/07/21 08:30:00, 0.3,26.0
2023/07/21 08:40:00, 0.3,26.2
2023/07/21 08:50:00, 0.3,26.3
2023/07/21 09:00:00, 0.3,27.1
2023/07/21 09:10:00, 0.3,27.1
2023/07/21 09:20:00, 0.3,27.4
2023/07/21 09:30:00, 0.3,27.9
2023/07/21 09:40:00, 0.3,27.9
2023/07/21 09:50:00, 0.2,28.2
2023/07/21 10:00:00, 0.2,28.2
2023/07/21 10:10:00, 0.1,28.5
2023/07/21 10:20:00, 0.2,29.0
2023/07/21 10:30:00, 0.1,29.0
2023/07/21 10:40:00, 0.1,29.0
2023/07/21 10:50:00, 0.1,29.4
2023/07/21 11:00:00, 0.3,29.4
2023/07/21 11:10:00, 0.2,29.6
2023/07/21 11:20:00, 0.2,29.8
2023/07/21 11:30:00, 0.2,29.8
2023/07/21 11:40:00, 0.3,29.8
2023/07/21 11:50:00, 0.3,30.1
2023/07/21 12:00:00, 0.2,29.9
2023/07/21 12:10:00, 0.3,30.0
2023/07/21 12:20:00, 0.5,30.0
2023/07/21 12:30:00, 0.3,30.4
2023/07/21 12:40:00, 0.4,31.2
2023/07/21 12:50:00, 0.3,30.8
2023/07/21 13:00:00, 0.3,30.8
2023/07/21 13:10:00, 0.3,30.9
2023/07/21 13:20:00, 0.3,30.9
2023/07/21 13:30:00, 0.4,30.6
2023/07/21 13:40:00, 0.3,30.9
2023/07/21 13:50:00, 0.3,31.0
2023/07/21 14:00:00, 0.3,31.3
2023/07/21 14:10:00, 0.3,31.4
2023/07/21 14:20:00, 0.4,31.5
2023/07/21 14:30:00, 0.4,31.4
2023/07/21 14:40:00, 0.3,31.7
2023/07/21 14:50:00, 0.3,31.8
2023/07/21 15:00:00, 0.4,31.7
2023/07/21 15:10:00, 0.3,31.8
2023/07/21 15:20:00, 0.4,31.6
2023/07/21 15:30:00, 0.5,31.2
2023/07/21 15:40:00, 0.3,30.8
2023/07/21 15:50:00, 0.2,30.8
2023/07/21 16:00:00, 0.3,30.4
2023/07/21 16:10:00, 0.3,30.2
2023/07/21 16:20:00, 0.3,30.0
2023/07/21 16:30:00, 0.8,29.0
2023/07/21 16:40:00, 0.3,29.8
2023/07/21 16:50:00, 0.3,29.7
2023/07/21 17:00:00, 0.4,29.3
2023/07/21 17:10:00, 0.4,28.6
2023/07/21 17:20:00, 0.3,29.1
2023/07/21 17:30:00, 0.3,28.8
2023/07/21 17:40:00, 0.4,27.7
2023/07/21 17:50:00, 0.2,27.6
2023/07/21 18:00:00, 0.1,27.5
2023/07/21 18:10:00, 0.1,26.9
2023/07/21 18:20:00, 0.1,26.2
2023/07/21 18:30:00, 0.1,25.9
2023/07/21 18:40:00, 0.1,25.6
2023/07/21 18:50:00, 0.1,25.3
2023/07/21 19:00:00, 0.1,24.9
2023/07/21 19:10:00, 0.1,24.2
2023/07/21 19:20:00, 0.1,23.8
2023/07/21 19:30:00, 0.1,23.9
2023/07/21 19:40:00, 0.1,23.6
2023/07/21 19:50:00, 0.1,23.5
2023/07/21 20:00:00, 0.1,23.2
2023/07/21 20:10:00, 0.1,22.9
2023/07/21 20:20:00, 0.2,23.0
2023/07/21 20:30:00, 0.1,23.2
2023/07/21 20:40:00, 0.1,22.8
2023/07/21 20:50:00, 0.1,22.6
2023/07/21 21:00:00, 0.1,22.5
2023/07/21 21:10:00, 0.1,22.2
2023/07/21 21:20:00, 0.2,22.2
2023/07/21 21:30:00, 0.1,21.9
2023/07/21 21:40:00, 0.1,21.9
2023/07/21 21:50:00, 0.2,21.9
2023/07/21 22:00:00, 0.2,21.6
2023/07/21 22:10:00, 0.2,21.6
2023/07/21 22:20:00, 0.2,21.5
2023/07/21 22:30:00, 0.2,21.5
2023/07/21 22:40:00, 0.2,21.5
2023/07/21 22:50:00, 0.2,21.3
2023/07/21 23:00:00, 0.2,21.2
2023/07/21 23:10:00, 0.2,21.4
2023/07/21 23:20:00, 0.2,21.2
2023/07/21 23:30:00, 0.2,21.2
2023/07/21 23:40:00, 0.2,20.9
2023/07/21 23:50:00, 0.2,20.9
